1507608000.96,5981,10.25,73068.5,-8.75,-9.53,-9.53,0,*6F
1507608002.2,5982,10.25,73072.8,-8.75,-9.57,-9.53,0,*68
1507608003.47,5983,10.25,73074.0,-8.77,-9.61,-9.61,0,*6F
1507608004.74,5984,10.25,73078.0,-8.77,-9.61,-9.61,0,*68
1507608006.01,5985,10.25,73082.0,-8.77,-9.61,-9.61,0,*69
1507608007.24,5986,10.25,73082.5,-8.75,-9.57,-9.57,0,*68
1507608008.47,5987,10.25,73082.0,-8.75,-9.57,-9.57,0,*69
1507608009.74,5988,10.25,73082.0,-8.77,-9.61,-9.61,0,*64
1507608011.01,5989,10.25,73080.8,-8.77,-9.61,-9.61,0,*65
1507608012.23,5990,10.25,73080.5,-8.77,-9.67,-9.67,0,*6D
1507608013.48,5991,10.25,73080.5,-8.77,-9.61,-9.67,0,*6A
1507608014.73,5992,10.25,73078.3,-8.77,-9.61,-9.67,0,*69
1507608015.95,5993,10.25,73076.8,-8.77,-9.67,-9.67,0,*6E
1507608017.21,5994,10.25,73082.8,-8.77,-9.57,-9.61,0,*6C
1507608018.46,5995,10.25,73076.5,-8.77,-9.61,-9.67,0,*6E
1507608019.7,5996,10.25,73064.8,-8.75,-9.57,-9.61,0,*6C
1507608020.93,5997,10.25,73064.0,-8.75,-9.57,-9.57,0,*68
1507608022.16,5998,10.25,73064.3,-8.75,-9.57,-9.61,0,*62
1507608023.43,5999,10.25,73064.8,-8.77,-9.61,-9.61,0,*64
1507608024.67,6000,10.25,73068.8,-8.75,-9.57,-9.57,0,*6C
1507608025.9,6001,10.25,73068.3,-8.75,-9.57,-9.57,0,*6D
1507608027.13,6002,10.25,73070.3,-8.75,-9.57,-9.57,0,*6E
1507608028.36,6003,10.25,73074.5,-8.75,-9.57,-9.57,0,*6F
1507608029.63,6004,10.25,73078.5,-8.77,-9.61,-9.61,0,*6A
1507608030.9,6005,10.25,73078.0,-8.77,-9.61,-9.61,0,*6B
1507608032.13,6006,10.25,73078.0,-8.75,-9.57,-9.57,0,*6A
1507608033.37,6007,10.25,73076.5,-8.75,-9.57,-9.57,0,*6B
1507608034.6,6008,10.25,73064.8,-8.75,-9.57,-9.61,0,*61
1507608035.84,6009,10.25,73064.5,-8.75,-9.53,-9.61,0,*64
1507608037.09,6010,10.25,73062.3,-8.77,-9.61,-9.67,0,*69
1507608038.33,6011,10.25,73066.0,-8.77,-9.61,-9.67,0,*68
1507608039.57,6012,10.25,73062.8,-8.75,-9.57,-9.61,0,*6A
1507608040.8,6013,10.25,73062.0,-8.75,-9.61,-9.61,0,*6E
1507608042.04,6014,10.25,73062.0,-8.75,-9.57,-9.61,0,*6C
1507608043.28,6015,10.25,73062.3,-8.75,-9.61,-9.61,0,*68
1507608044.52,6016,10.25,73060.0,-8.75,-9.61,-9.61,0,*6B
1507608045.76,6017,10.25,73060.5,-8.75,-9.61,-9.61,0,*6A
1507608046.97,6018,10.25,73060.0,-8.75,-9.61,-9.71,0,*64
1507608048.17,6019,10.25,73060.0,-8.75,-9.67,-9.75,0,*67
1507608049.38,6020,10.25,73062.8,-8.75,-9.61,-9.75,0,*6B
1507608050.6,6021,10.25,73066.8,-8.75,-9.61,-9.71,0,*6E
1507608051.82,6022,10.25,73068.5,-8.77,-9.75,-9.75,0,*6E
1507608053.04,6023,10.25,73074.8,-8.75,-9.61,-9.71,0,*6C
1507608054.25,6024,10.25,73074.3,-8.75,-9.61,-9.71,0,*6B
1507608055.45,6025,10.25,73072.8,-8.75,-9.71,-9.71,0,*6B
1507608056.65,6026,10.25,73074.3,-8.75,-9.71,-9.71,0,*68
1507608057.85,6027,10.25,73072.5,-8.75,-9.75,-9.75,0,*69
1507608059.05,6028,10.25,73070.8,-8.75,-9.71,-9.71,0,*66
1507608060.25,6029,10.25,73072.5,-8.75,-9.71,-9.71,0,*67
1507608061.47,6030,10.25,73072.8,-8.75,-9.71,-9.83,0,*62
1507608062.67,6031,10.25,73068.8,-8.75,-9.71,-9.71,0,*6E
1507608063.87,6032,10.25,73076.5,-8.75,-9.71,-9.75,0,*69
1507608065.06,6033,10.25,73072.8,-8.75,-9.75,-9.71,0,*68
1507608066.29,6034,10.25,73074.8,-8.77,-9.79,-9.79,0,*69
1507608067.51,6035,10.25,73074.5,-8.77,-9.89,-9.79,0,*67
1507608068.72,6036,10.25,73076.8,-8.77,-9.89,-9.79,0,*64
1507608069.94,6037,10.25,73082.5,-8.75,-9.83,-9.75,0,*61
1507608071.13,6038,10.25,73076.0,-8.75,-9.75,-9.89,0,*64
1507608072.34,6039,10.25,73066.5,-8.77,-9.89,-9.89,0,*64
1507608073.56,6040,10.25,73062.8,-8.75,-9.75,-9.83,0,*61
1507608074.78,6041,10.25,73056.0,-8.75,-9.83,-9.75,0,*60
1507608075.97,6042,10.25,73060.0,-8.75,-9.75,-9.75,0,*6A
1507608077.19,6043,10.25,73066.0,-8.75,-9.83,-9.75,0,*62
1507608078.41,6044,10.25,73056.0,-8.77,-9.79,-9.89,0,*61
1507608079.6,6045,10.25,73058.0,-8.75,-9.75,-9.75,0,*6D
1507608080.82,6046,10.25,73056.5,-8.75,-9.83,-9.75,0,*67
1507608082.06,6047,10.25,73058.8,-8.75,-9.83,-9.83,0,*6F
1507608083.27,6048,10.25,73054.0,-8.77,-9.89,-9.75,0,*61
1507608084.49,6049,10.25,73056.3,-8.75,-9.75,-9.83,0,*68
1507608085.69,6050,10.25,73060.5,-8.75,-9.75,-9.75,0,*69
1507608086.92,6051,10.25,73064.8,-8.75,-9.83,-9.83,0,*68
1507608088.16,6052,10.25,73066.0,-8.75,-9.83,-9.83,0,*6B
1507608089.36,6053,10.25,73060.3,-8.75,-9.75,-9.75,0,*6A
1507608090.58,6054,10.25,73060.8,-8.75,-9.75,-9.83,0,*64
1507608091.8,6055,10.25,73054.3,-8.75,-9.75,-9.83,0,*65
1507608093.01,6056,10.25,73052.5,-8.77,-9.89,-9.79,0,*62
1507608094.23,6057,10.25,73054.8,-8.77,-9.89,-9.89,0,*6C
1507608095.44,6058,10.25,73054.8,-8.77,-9.89,-9.79,0,*6C
1507608096.68,6059,10.25,73056.8,-8.75,-9.83,-9.83,0,*60
1507608097.9,6060,10.25,73062.5,-8.75,-9.75,-9.83,0,*63
1507608099.11,6061,10.25,73062.5,-8.75,-9.89,-9.83,0,*61
1507608100.32,6062,10.25,73062.8,-8.75,-9.89,-9.83,0,*62
1507608101.53,6063,10.25,73070.3,-8.75,-9.83,-9.89,0,*63
1507608102.75,6064,10.25,73070.0,-8.77,-9.93,-9.93,0,*6C
1507608103.98,6065,10.25,73074.3,-8.77,-9.93,-10.01,0,*5E
1507608105.2,6066,10.25,73072.8,-8.77,-9.89,-9.93,0,*65
1507608106.42,6067,10.25,73072.0,-8.77,-9.93,-9.89,0,*64
1507608107.61,6068,10.25,73074.0,-8.75,-9.93,-9.89,0,*69
1507608108.83,6069,10.25,73072.0,-8.77,-9.93,-9.93,0,*61
1507608110.05,6070,10.25,73068.3,-8.77,-9.93,-9.97,0,*6D
1507608111.25,6071,10.25,73068.5,-8.75,-9.93,-10.01,0,*59
1507608112.43,6072,10.25,73066.0,-8.75,-9.89,-9.97,0,*66
1507608113.62,6073,10.25,73064.3,-8.75,-9.89,-9.97,0,*67
1507608114.84,6074,10.25,73060.8,-8.77,-9.93,-9.93,0,*6D
1507608116.05,6075,10.25,73060.0,-8.75,-9.83,-9.89,0,*64
1507608117.28,6076,10.25,73060.8,-8.77,-9.93,-10.01,0,*5C
1507608118.51,6077,10.25,73052.0,-8.77,-9.93,-10.01,0,*5D
1507608119.74,6078,10.25,73052.8,-8.77,-10.01,-9.93,0,*52
1507608120.97,6079,10.25,73058.0,-8.77,-9.93,-10.01,0,*53
1507608122.17,6080,10.25,73062.5,-8.75,-9.97,-10.01,0,*53
1507608123.39,6081,10.25,73068.8,-8.77,-9.93,-9.93,0,*67
1507608124.62,6082,10.25,73066.3,-8.77,-9.93,-10.01,0,*57
1507608125.86,6083,10.25,73058.0,-8.77,-10.01,-10.01,0,*65
1507608127.09,6084,10.25,73054.5,-8.77,-9.93,-10.01,0,*51
1507608128.33,6085,10.25,73050.0,-8.77,-10.01,-10.01,0,*63
1507608129.56,6086,10.25,73050.0,-8.77,-10.01,-10.01,0,*60
1507608130.75,6087,10.25,73054.3,-8.75,-9.93,-9.93,0,*63
1507608131.94,6088,10.25,73046.3,-8.75,-9.89,-9.89,0,*6C
1507608133.12,6089,10.25,73046.3,-8.75,-9.89,-9.97,0,*62
1507608134.33,6090,10.25,73048.3,-8.75,-9.89,-9.83,0,*6F
1507608135.56,6091,10.25,73048.5,-8.77,-10.01,-9.93,0,*55
1507608136.79,6092,10.25,73056.5,-8.77,-9.93,-10.01,0,*56
1507608138.02,6093,10.25,73068.8,-8.77,-9.93,-10.01,0,*57
1507608139.24,6094,10.25,73068.8,-8.77,-9.93,-9.93,0,*63
1507608140.46,6095,10.25,73078.5,-8.77,-9.93,-9.93,0,*62
1507608141.66,6096,10.25,73076.5,-8.75,-9.93,-10.01,0,*50
1507608142.89,6097,10.25,73072.8,-8.77,-9.93,-9.93,0,*60
1507608144.1,6098,10.25,73072.8,-8.77,-9.93,-9.89,0,*64
1507608145.32,6099,10.25,73066.0,-8.77,-9.93,-9.93,0,*6E
1507608146.54,6100,10.25,73064.5,-8.77,-9.93,-9.89,0,*64
1507608147.75,6101,10.25,73066.0,-8.75,-9.83,-9.89,0,*66
1507608148.97,6102,10.25,73066.0,-8.77,-9.89,-9.89,0,*6D
1507608150.19,6103,10.25,73068.0,-8.77,-9.89,-9.93,0,*67
1507608151.41,6104,10.25,73070.0,-8.77,-9.93,-9.93,0,*6B
1507608152.63,6105,10.25,73068.8,-8.77,-10.01,-9.93,0,*59
1507608153.86,6106,10.25,73062.8,-8.77,-10.01,-9.89,0,*51
1507608155.09,6107,10.25,73058.3,-8.77,-9.93,-10.01,0,*5B
1507608156.31,6108,10.25,73056.0,-8.77,-9.93,-9.93,0,*67
1507608157.53,6109,10.25,73052.3,-8.77,-9.93,-9.93,0,*66
1507608158.76,6110,10.25,73054.0,-8.77,-9.93,-10.01,0,*5D
1507608159.99,6111,10.25,73048.3,-8.77,-10.01,-9.93,0,*5C
1507608161.21,6112,10.25,73050.0,-8.77,-9.93,-9.93,0,*6C
1507608162.43,6113,10.25,73044.0,-8.77,-9.93,-9.89,0,*66
1507608163.66,6114,10.25,73040.8,-8.77,-10.01,-9.93,0,*59
1507608164.88,6115,10.25,73036.5,-8.77,-9.93,-9.79,0,*6F
1507608166.1,6116,10.25,73032.0,-8.77,-10.01,-9.89,0,*50
1507608167.32,6117,10.25,73038.0,-8.77,-9.89,-9.93,0,*62
1507608168.54,6118,10.25,73044.8,-8.77,-9.93,-9.89,0,*6D
1507608169.77,6119,10.25,73048.5,-8.77,-9.93,-10.01,0,*54
1507608171.01,6120,10.25,73056.0,-8.77,-10.01,-10.01,0,*6D
1507608172.19,6121,10.25,73060.8,-8.75,-9.97,-9.89,0,*61
1507608173.41,6122,10.25,73060.5,-8.77,-9.93,-9.93,0,*6F
1507608174.64,6123,10.25,73064.3,-8.77,-9.93,-9.93,0,*6E
1507608175.87,6124,10.25,73056.8,-8.77,-9.93,-10.01,0,*5A
1507608177.09,6125,10.25,73052.3,-8.77,-10.01,-9.93,0,*5B
1507608178.31,6126,10.25,73058.0,-8.77,-9.93,-9.93,0,*6B
1507608179.53,6127,10.25,73056.8,-8.81,-9.97,-9.97,0,*63
1507608180.74,6128,10.25,73056.0,-8.81,-9.97,-9.97,0,*6C
1507608181.96,6129,10.25,73066.8,-8.81,-9.97,-9.93,0,*69
1507608183.17,6130,10.25,73068.3,-8.81,-10.05,-9.97,0,*56
1507608184.39,6131,10.25,73060.0,-8.81,-9.97,-9.97,0,*64
1507608185.6,6132,10.25,73056.8,-8.81,-9.97,-9.97,0,*67
1507608186.82,6133,10.25,73058.0,-8.81,-10.05,-10.05,0,*66
1507608188.04,6134,10.25,73056.3,-8.81,-9.97,-10.05,0,*52
1507608189.25,6135,10.25,73060.0,-8.77,-9.89,-9.79,0,*66
1507608190.47,6136,10.25,73062.3,-8.77,-9.89,-9.89,0,*6A
1507608191.68,6137,10.25,73064.3,-8.81,-9.93,-9.93,0,*62
1507608192.9,6138,10.25,73062.3,-8.81,-9.93,-9.93,0,*6D
1507608194.11,6139,10.25,73066.5,-8.81,-9.93,-9.97,0,*68
1507608195.32,6140,10.25,73066.8,-8.81,-9.93,-9.97,0,*66
1507608196.54,6141,10.25,73066.3,-8.81,-9.97,-9.97,0,*63
1507608197.73,6142,10.25,73064.5,-8.83,-9.97,-9.97,0,*62
1507608198.94,6143,10.25,73066.5,-8.81,-9.97,-9.97,0,*61
1507608200.16,6144,10.25,73062.0,-8.81,-9.97,-9.97,0,*66
1507608201.38,6145,10.25,73052.3,-8.77,-9.93,-9.93,0,*6E
1507608202.6,6146,10.25,73054.8,-8.77,-9.93,-9.93,0,*6D
1507608203.82,6147,10.25,73056.3,-8.77,-10.01,-9.93,0,*5F
1507608205.04,6148,10.25,73056.3,-8.81,-9.93,-9.93,0,*6A
1507608206.25,6149,10.25,73048.8,-8.81,-9.93,-9.93,0,*6B
1507608207.47,6150,10.25,73052.0,-8.81,-9.93,-9.93,0,*63
1507608208.68,6151,10.25,73062.8,-8.81,-9.93,-9.93,0,*62
1507608209.95,6152,10.25,73066.5,-8.81,-9.83,-9.83,0,*61
1507608211.17,6153,10.25,73066.0,-8.77,-9.79,-9.79,0,*69
1507608212.41,6154,10.25,73064.3,-8.81,-9.93,-9.83,0,*66
1507608213.63,6155,10.25,73060.5,-8.81,-9.93,-9.93,0,*66
1507608214.84,6156,10.25,73070.3,-8.81,-9.93,-9.93,0,*65
1507608216.11,6157,10.25,73072.3,-8.81,-9.83,-9.83,0,*64
1507608217.33,6158,10.25,73076.3,-8.77,-9.79,-9.79,0,*62
1507608218.55,6159,10.25,73076.8,-8.77,-9.89,-9.79,0,*6C
1507608219.78,6160,10.25,73078.0,-8.77,-9.79,-9.79,0,*69
1507608220.99,6161,10.25,73074.0,-8.77,-9.89,-9.79,0,*67
1507608222.21,6162,10.25,73072.8,-8.77,-9.89,-9.89,0,*6B
1507608223.43,6163,10.25,73072.0,-8.77,-9.79,-9.79,0,*6A
1507608224.65,6164,10.25,73078.0,-8.77,-9.89,-9.79,0,*62
1507608225.86,6165,10.25,73074.3,-8.77,-9.89,-9.89,0,*6C
1507608227.08,6166,10.25,73074.3,-8.77,-9.89,-9.89,0,*6F
1507608228.3,6167,10.25,73072.5,-8.77,-9.93,-9.89,0,*65
1507608229.51,6168,10.25,73072.8,-8.81,-9.93,-9.97,0,*6C
1507608230.72,6169,10.25,73070.3,-8.81,-9.93,-9.93,0,*69
1507608231.94,6170,10.25,73066.8,-8.81,-9.93,-10.05,0,*56
1507608233.17,6171,10.25,73070.3,-8.77,-9.89,-10.01,0,*51
1507608234.39,6172,10.25,73072.8,-8.77,-9.93,-9.93,0,*6A
1507608235.63,6173,10.25,73074.8,-8.77,-10.01,-10.01,0,*6B
1507608236.85,6174,10.25,73068.5,-8.77,-9.93,-9.93,0,*6C
1507608238.07,6175,10.25,73074.8,-8.81,-10.05,-10.05,0,*64
1507608239.31,6176,10.25,73072.3,-8.81,-10.05,-9.83,0,*51
1507608240.52,6177,10.25,73064.0,-8.81,-9.97,-9.97,0,*66
1507608241.74,6178,10.25,73064.0,-8.81,-9.97,-10.05,0,*5A
1507608242.96,6179,10.25,73068.3,-8.81,-9.97,-9.97,0,*68
1507608244.17,6180,10.25,73076.0,-8.81,-9.97,-10.05,0,*5D
1507608245.37,6181,10.25,73082.5,-8.83,-10.05,-10.05,0,*6D
1507608246.59,6182,10.25,73064.5,-8.81,-9.97,-10.05,0,*5F
1507608247.78,6183,10.25,73058.0,-8.83,-10.05,-9.97,0,*5C
1507608248.97,6184,10.25,73048.5,-8.83,-9.97,-10.05,0,*5B
1507608250.19,6185,10.25,73042.8,-8.81,-9.97,-9.97,0,*6B
1507608251.4,6186,10.25,73044.0,-8.81,-9.97,-9.97,0,*68
1507608252.62,6187,10.25,73048.0,-8.81,-9.97,-10.05,0,*5A
1507608253.83,6188,10.25,73042.5,-8.81,-10.05,-9.97,0,*55
1507608255.05,6189,10.25,73044.8,-8.81,-9.93,-9.93,0,*67
1507608256.26,6190,10.25,73056.5,-8.81,-9.93,-9.97,0,*6B
1507608257.48,6191,10.25,73066.0,-8.81,-9.93,-9.93,0,*6E
1507608258.71,6192,10.25,73062.8,-8.81,-9.93,-9.83,0,*6C
1507608259.91,6193,10.25,73062.3,-8.83,-9.93,-9.93,0,*6E
1507608261.12,6194,10.25,73064.8,-8.83,-9.83,-9.93,0,*68
1507608262.38,6195,10.25,73064.3,-8.81,-9.83,-9.83,0,*6A
1507608263.6,6196,10.25,73070.0,-8.81,-9.93,-9.93,0,*69
1507608264.86,6197,10.25,73070.5,-8.81,-9.83,-9.83,0,*68
1507608266.1,6198,10.25,73076.3,-8.81,-9.93,-9.83,0,*66
1507608267.34,6199,10.25,73078.0,-8.81,-9.83,-9.93,0,*67
1507608268.58,6200,10.25,73076.0,-8.81,-9.83,-9.93,0,*64
1507608269.79,6201,10.25,73076.5,-8.81,-9.93,-9.93,0,*64
1507608271.01,6202,10.25,73076.5,-8.81,-9.93,-9.93,0,*67
1507608272.25,6203,10.25,73082.5,-8.81,-9.83,-9.93,0,*67
1507608273.46,6204,10.25,73080.8,-8.81,-9.93,-9.93,0,*61
1507608274.68,6205,10.25,73082.5,-8.81,-9.97,-9.97,0,*60
1507608275.89,6206,10.25,73082.8,-8.81,-9.93,-9.97,0,*67
1507608277.08,6207,10.25,73086.5,-8.83,-9.93,-9.97,0,*64
1507608278.29,6208,10.25,73086.3,-8.81,-9.93,-9.97,0,*69
1507608279.48,6209,10.25,73088.0,-8.83,-9.93,-9.97,0,*6A
1507608280.67,6210,10.25,73084.8,-8.83,-9.97,-9.97,0,*66
1507608281.88,6211,10.25,73076.3,-8.81,-9.97,-9.97,0,*65
1507608283.08,6212,10.25,73078.5,-8.83,-9.97,-10.05,0,*57
1507608284.27,6213,10.25,73078.8,-8.83,-9.97,-10.05,0,*56
1507608285.48,6214,10.25,73080.8,-8.81,-9.97,-9.97,0,*60
1507608286.67,6215,10.25,73072.5,-8.83,-9.97,-9.97,0,*63
1507608287.87,6216,10.25,73070.5,-8.83,-10.05,-10.05,0,*60
1507608289.08,6217,10.25,73066.8,-8.81,-9.97,-9.97,0,*63
1507608290.3,6218,10.25,73070.8,-8.81,-9.97,-10.05,0,*5F
1507608291.52,6219,10.25,73068.3,-8.81,-9.97,-10.05,0,*5E
1507608292.74,6220,10.25,73070.3,-8.81,-10.05,-10.05,0,*67
1507608293.96,6221,10.25,73068.5,-8.81,-9.97,-10.05,0,*55
1507608295.15,6222,10.25,73068.0,-8.83,-10.05,-10.05,0,*67
1507608296.37,6223,10.25,73072.3,-8.81,-9.97,-10.05,0,*57
1507608297.56,6224,10.25,73060.3,-8.83,-9.97,-9.97,0,*61
1507608298.77,6225,10.25,73058.8,-8.81,-9.97,-9.97,0,*62
1507608299.99,6226,10.25,73066.8,-8.81,-9.97,-9.97,0,*61
1507608301.18,6227,10.25,73068.8,-8.83,-9.93,-9.97,0,*66
1507608302.39,6228,10.25,73070.0,-8.81,-9.93,-9.97,0,*6B
1507608303.61,6229,10.25,73066.0,-8.81,-9.97,-10.05,0,*5D
1507608304.8,6230,10.25,73064.8,-8.83,-9.97,-10.05,0,*57
1507608306.01,6231,10.25,73064.3,-8.81,-9.97,-9.97,0,*67
1507608307.23,6232,10.25,73072.5,-8.81,-9.97,-10.05,0,*57
1507608308.42,6233,10.25,73074.0,-8.83,-9.97,-9.97,0,*67
1507608309.63,6234,10.25,73070.5,-8.81,-9.97,-9.97,0,*62
1507608310.86,6235,10.25,73072.5,-8.81,-10.05,-10.09,0,*6F
1507608312.07,6236,10.25,73068.8,-8.81,-10.05,-9.97,0,*53
1507608313.27,6237,10.25,73068.5,-8.83,-10.05,-10.05,0,*63
1507608314.49,6238,10.25,73070.8,-8.81,-9.97,-10.09,0,*51
1507608315.71,6239,10.25,73072.0,-8.81,-10.05,-10.05,0,*6F
1507608316.93,6240,10.25,73074.0,-8.81,-10.05,-10.05,0,*61
1507608318.13,6241,10.25,73074.8,-8.83,-10.09,-10.19,0,*63
1507608319.33,6242,10.25,73074.8,-8.83,-10.09,-10.09,0,*61
1507608320.55,6243,10.25,73078.3,-8.81,-10.09,-10.09,0,*62
1507608321.78,6244,10.25,73068.5,-8.81,-10.09,-10.19,0,*64
1507608322.98,6245,10.25,73072.0,-8.83,-10.09,-10.09,0,*66
1507608324.17,6246,10.25,73068.5,-8.83,-10.09,-10.09,0,*65
1507608325.39,6247,10.25,73074.3,-8.83,-10.19,-10.19,0,*64
1507608326.63,6248,10.25,73078.3,-8.81,-10.19,-10.19,0,*69
1507608327.84,6249,10.25,73074.5,-8.83,-10.19,-10.19,0,*6A
1507608329.06,6250,10.25,73078.8,-8.83,-10.19,-10.19,0,*62
1507608330.26,6251,10.25,73080.0,-8.83,-10.05,-10.09,0,*6F
1507608331.45,6252,10.25,73082.0,-8.83,-10.09,-10.09,0,*60
1507608332.65,6253,10.25,73076.5,-8.83,-10.09,-10.09,0,*61
1507608333.89,6254,10.25,73084.0,-8.81,-10.19,-10.19,0,*64
1507608335.1,6255,10.25,73082.5,-8.83,-10.19,-10.19,0,*67
1507608336.31,6256,10.25,73080.8,-8.83,-10.09,-10.19,0,*65
1507608337.52,6257,10.25,73078.5,-8.83,-10.19,-10.09,0,*64
1507608338.72,6258,10.25,73076.8,-8.83,-10.19,-10.09,0,*6B
1507608339.95,6259,10.25,73070.3,-8.81,-10.09,-10.09,0,*69
1507608341.15,6260,10.25,73068.8,-8.83,-10.19,-10.09,0,*60
1507608342.35,6261,10.25,73066.0,-8.83,-10.09,-10.05,0,*6C
1507608343.58,6262,10.25,73068.0,-8.81,-10.05,-10.19,0,*6C
1507608344.78,6263,10.25,73066.5,-8.83,-10.09,-10.09,0,*62
1507608345.97,6264,10.25,73060.3,-8.83,-10.09,-10.09,0,*65
1507608347.18,6265,10.25,73064.3,-8.83,-10.05,-10.19,0,*69
1507608348.37,6266,10.25,73070.0,-8.83,-10.05,-10.09,0,*6B
1507608349.57,6267,10.25,73070.3,-8.83,-10.09,-10.09,0,*66
1507608350.78,6268,10.25,73068.0,-8.83,-10.05,-10.19,0,*64
1507608351.97,6269,10.25,73060.8,-8.83,-10.09,-10.09,0,*68
1507608353.17,6270,10.25,73054.5,-8.83,-10.05,-10.05,0,*60
1507608354.37,6271,10.25,73048.3,-8.85,-10.05,-10.05,0,*67
1507608355.56,6272,10.25,73056.8,-8.85,-10.05,-10.05,0,*64
1507608356.77,6273,10.25,73054.5,-8.85,-10.05,-10.15,0,*64
1507608357.96,6274,10.25,73064.8,-8.85,-10.09,-10.09,0,*62
1507608359.16,6275,10.25,73060.3,-8.85,-10.05,-9.97,0,*50
1507608360.38,6276,10.25,73054.3,-8.87,-10.09,-10.09,0,*62
1507608361.57,6277,10.25,73050.3,-8.85,-9.97,-9.97,0,*61
1507608362.77,6278,10.25,73052.8,-8.85,-10.05,-10.05,0,*6E
1507608363.96,6279,10.25,73052.3,-8.85,-10.05,-9.97,0,*5C
1507608365.15,6280,10.25,73054.5,-8.85,-10.05,-10.05,0,*69
1507608366.35,6281,10.25,73052.8,-8.85,-10.05,-9.97,0,*5B
1507608367.58,6282,10.25,73060.3,-8.87,-10.09,-10.15,0,*64
1507608368.77,6283,10.25,73050.0,-8.85,-10.05,-10.09,0,*66
1507608369.96,6284,10.25,73054.8,-8.85,-9.97,-9.97,0,*6D
1507608371.16,6285,10.25,73058.5,-8.85,-10.05,-10.05,0,*6C
1507608372.36,6286,10.25,73052.3,-8.85,-10.05,-10.05,0,*6F
1507608373.55,6287,10.25,73056.8,-8.85,-9.97,-9.97,0,*6E
1507608374.73,6288,10.25,73056.5,-8.85,-9.97,-9.97,0,*61
1507608375.93,6289,10.25,73062.8,-8.85,-9.97,-9.93,0,*64
1507608377.12,6290,10.25,73060.0,-8.85,-9.97,-10.05,0,*5B
1507608378.31,6291,10.25,73062.8,-8.85,-9.97,-10.05,0,*5A
1507608379.51,6292,10.25,73066.3,-8.85,-10.05,-9.97,0,*59
1507608380.7,6293,10.25,73062.0,-8.85,-10.05,-10.05,0,*6B
1507608381.9,6294,10.25,73056.5,-8.85,-10.09,-10.05,0,*60
1507608383.13,6295,10.25,73058.8,-8.87,-10.09,-10.15,0,*62
1507608384.33,6296,10.25,73060.5,-8.85,-10.09,-10.05,0,*62
1507608385.52,6297,10.25,73062.8,-8.85,-10.09,-10.05,0,*63
1507608386.72,6298,10.25,73060.5,-8.85,-10.05,-10.05,0,*60
1507608387.92,6299,10.25,73060.3,-8.85,-10.05,-10.05,0,*61
1507608389.11,6300,10.25,73056.8,-8.85,-9.97,-10.09,0,*5F
1507608390.31,6301,10.25,73060.8,-8.85,-9.97,-10.05,0,*52
1507608391.5,6302,10.25,73058.3,-8.85,-10.05,-10.05,0,*62
1507608392.73,6303,10.25,73058.0,-8.87,-10.09,-10.01,0,*69
1507608393.93,6304,10.25,73058.5,-8.85,-10.05,-10.05,0,*64
1507608395.13,6305,10.25,73054.0,-8.85,-10.05,-10.05,0,*65
1507608396.35,6306,10.25,73056.3,-8.87,-10.09,-10.09,0,*64
1507608397.54,6307,10.25,73060.0,-8.85,-9.97,-10.05,0,*54
1507608398.74,6308,10.25,73060.0,-8.85,-10.05,-10.05,0,*68
1507608399.96,6309,10.25,73062.0,-8.87,-10.09,-10.09,0,*6B
1507608401.19,6310,10.25,73064.8,-8.87,-10.01,-10.09,0,*6B
1507608402.38,6311,10.25,73066.3,-8.85,-10.05,-9.97,0,*53
1507608403.58,6312,10.25,73064.0,-8.85,-9.97,-10.05,0,*50
1507608404.77,6313,10.25,73066.0,-8.85,-9.97,-10.05,0,*51
1507608406.0,6314,10.25,73062.3,-8.87,-10.09,-10.01,0,*6F
1507608407.23,6315,10.25,73060.0,-8.87,-10.01,-10.01,0,*66
1507608408.43,6316,10.25,73060.0,-8.85,-9.97,-10.05,0,*54
1507608409.62,6317,10.25,73062.5,-8.85,-9.97,-10.05,0,*55
1507608410.86,6318,10.25,73058.3,-8.87,-10.01,-10.01,0,*6B
1507608412.05,6319,10.25,73060.8,-8.85,-10.05,-10.05,0,*68
1507608413.25,6320,10.25,73060.0,-8.85,-9.97,-10.05,0,*51
1507608414.48,6321,10.25,73056.8,-8.87,-10.09,-10.01,0,*69
1507608415.7,6322,10.25,73052.3,-8.87,-10.09,-10.09,0,*62
1507608416.92,6323,10.25,73052.3,-8.87,-10.09,-10.09,0,*63
1507608418.12,6324,10.25,73054.5,-8.85,-10.05,-10.05,0,*66
1507608419.34,6325,10.25,73050.3,-8.87,-10.09,-10.09,0,*65
1507608420.54,6326,10.25,73050.3,-8.85,-9.97,-10.05,0,*57
1507608421.76,6327,10.25,73052.0,-8.87,-10.09,-10.09,0,*67
1507608422.99,6328,10.25,73056.5,-8.87,-10.09,-10.09,0,*68
1507608424.18,6329,10.25,73058.3,-8.85,-9.97,-10.05,0,*58
1507608425.37,6330,10.25,73044.5,-8.85,-9.97,-9.97,0,*63
1507608426.56,6331,10.25,73042.8,-8.85,-10.05,-9.97,0,*51
1507608427.79,6332,10.25,73048.3,-8.87,-10.09,-10.01,0,*6B
1507608428.99,6333,10.25,73048.8,-8.85,-9.97,-10.05,0,*53
1507608430.18,6334,10.25,73040.8,-8.85,-10.05,-10.05,0,*67
1507608431.41,6335,10.25,73038.5,-8.87,-10.01,-10.01,0,*64
1507608432.64,6336,10.25,73042.3,-8.87,-10.01,-10.09,0,*6F
1507608433.87,6337,10.25,73032.3,-8.87,-10.01,-10.09,0,*6E
1507608435.1,6338,10.25,73034.8,-8.87,-10.01,-10.09,0,*61
1507608436.32,6339,10.25,73044.5,-8.87,-10.01,-10.09,0,*60
1507608437.52,6340,10.25,73046.3,-8.85,-10.05,-10.05,0,*64
1507608438.75,6341,10.25,73050.8,-8.87,-10.01,-10.01,0,*67
1507608439.98,6342,10.25,73046.0,-8.87,-10.01,-10.09,0,*6C
1507608441.21,6343,10.25,73048.5,-8.87,-10.01,-10.09,0,*6D
1507608442.44,6344,10.25,73060.5,-8.87,-10.09,-10.01,0,*6A
1507608443.63,6345,10.25,73062.3,-8.85,-9.97,-10.09,0,*5E
1507608444.86,6346,10.25,73060.8,-8.87,-10.09,-10.09,0,*60
1507608446.08,6347,10.25,73066.8,-8.87,-10.09,-10.01,0,*69
1507608447.31,6348,10.25,73068.3,-8.87,-10.09,-10.09,0,*6E
1507608448.5,6349,10.25,73068.5,-8.85,-9.97,-9.97,0,*6D
1507608449.69,6350,10.25,73064.8,-8.85,-9.97,-10.05,0,*56
1507608450.93,6351,10.25,73068.5,-8.87,-10.01,-10.01,0,*66
1507608452.15,6352,10.25,73070.5,-8.87,-10.01,-10.09,0,*6D
1507608453.35,6353,10.25,73070.0,-8.85,-10.05,-10.05,0,*66
1507608454.57,6354,10.25,73068.0,-8.87,-10.09,-10.09,0,*63
1507608455.8,6355,10.25,73066.3,-8.87,-10.01,-10.09,0,*6A
1507608457.02,6356,10.25,73070.8,-8.87,-10.09,-10.09,0,*61
1507608458.25,6357,10.25,73068.5,-8.87,-10.09,-10.09,0,*60
1507608459.47,6358,10.25,73066.3,-8.87,-10.09,-10.23,0,*67
1507608460.67,6359,10.25,73064.3,-8.85,-10.05,-10.09,0,*60
1507608461.9,6360,10.25,73066.0,-8.87,-10.09,-10.15,0,*69
1507608463.12,6361,10.25,73066.3,-8.87,-10.09,-10.23,0,*6D
1507608464.36,6362,10.25,73068.3,-8.87,-10.15,-10.23,0,*63
1507608465.57,6363,10.25,73064.8,-8.85,-10.15,-10.15,0,*65
1507608466.79,6364,10.25,73064.0,-8.87,-10.09,-10.23,0,*68
1507608468.03,6365,10.25,73070.3,-8.87,-10.23,-10.15,0,*64
1507608469.27,6366,10.25,73060.3,-8.87,-10.23,-10.15,0,*67
1507608470.5,6367,10.25,73062.3,-8.87,-10.23,-10.23,0,*63
1507608471.74,6368,10.25,73060.5,-8.87,-10.15,-10.15,0,*6C
1507608472.98,6369,10.25,73064.8,-8.87,-10.15,-10.15,0,*6D
1507608474.22,6370,10.25,73064.3,-8.87,-10.15,-10.15,0,*65
1507608475.46,6371,10.25,73064.8,-8.87,-10.15,-10.15,0,*64
1507608476.7,6372,10.25,73070.3,-8.87,-10.15,-10.23,0,*62
1507608477.94,6373,10.25,73072.0,-8.87,-10.15,-10.15,0,*66
1507608479.18,6374,10.25,73076.0,-8.87,-10.15,-10.15,0,*61
1507608480.41,6375,10.25,73080.0,-8.87,-10.09,-10.15,0,*6D
1507608481.61,6376,10.25,73072.3,-8.85,-10.09,-10.15,0,*6C
1507608482.82,6377,10.25,73072.5,-8.89,-10.15,-10.15,0,*6C
1507608484.04,6378,10.25,73074.8,-8.89,-10.15,-10.15,0,*63
1507608485.24,6379,10.25,73068.8,-8.89,-10.23,-10.23,0,*62
1507608486.46,6380,10.25,73074.0,-8.89,-10.15,-10.15,0,*64
1507608487.66,6381,10.25,73070.5,-8.89,-10.23,-10.23,0,*65
1507608488.87,6382,10.25,73072.8,-8.89,-10.15,-10.15,0,*66
1507608490.08,6383,10.25,73070.5,-8.89,-10.23,-10.23,0,*67
1507608491.29,6384,10.25,73068.5,-8.89,-10.15,-10.23,0,*65
1507608492.52,6385,10.25,73064.5,-8.91,-10.19,-10.19,0,*68
1507608493.73,6386,10.25,73068.3,-8.89,-10.15,-10.15,0,*62
1507608494.94,6387,10.25,73076.3,-8.89,-10.23,-10.15,0,*66
1507608496.16,6388,10.25,73082.3,-8.89,-10.23,-10.15,0,*69
1507608497.37,6389,10.25,73078.3,-8.89,-10.23,-10.15,0,*68
1507608498.58,6390,10.25,73066.3,-8.89,-10.23,-10.15,0,*60
1507608499.79,6391,10.25,73056.5,-8.89,-10.15,-10.15,0,*64
1507608501.0,6392,10.25,73056.3,-8.89,-10.15,-10.15,0,*67
1507608502.21,6393,10.25,73056.8,-8.89,-10.23,-10.15,0,*63
1507608503.42,6394,10.25,73054.5,-8.89,-10.23,-10.15,0,*64
1507608504.64,6395,10.25,73052.3,-8.89,-10.23,-10.15,0,*65